Flag for U.S.A. Weather past 2 weeks in Macon, Georgia, U.S.A.

Now
36 °F

Sunny.


Feels Like: 36 °F
Forecast: 30 / 52 °F
Wind: No wind

Location: Middle Georgia Regional Airport

Current Time: Jan 27, 2015 at 9:45:19 AM

Latest Report: Jan 27, 2015 at 8:53 AM


Visibility: 10 mi

Pressure: 29.94 "Hg

Humidity: 85%

Dew point: 32 °F

Location of MaconLocation

Historic Weather in Macon — Graph

°F

Macon temperature yesterday

Maximum temperature yesterday: 50 °F (at 12:53 AM)
Minimum temperature yesterday: 34 °F (at 9:53 PM)
Average temperature yesterday: 44 °F

Past Weeks' High & Low Weather Summary

 TemperatureHumidityPressure
High69 °F (Jan 21, 2:53 PM)100% (Jan 12, 8:53 AM)30.31 "Hg (Jan 12, 8:53 AM)
Low28 °F (Jan 17, 4:53 AM)19% (Jan 19, 3:53 PM)29.72 "Hg (Jan 24, 1:53 AM)
Average45 °F76%30.09 "Hg
* Reported Jan 12 8:53 AM — Jan 27 8:53 AM, Macon, Weather by CustomWeather, © 2014

Note: Actual official high and low records may vary slightly from our data, if they occured in-between our weather recording intervals... More about our weather records

Advertising

Macon weather history for previous 24 hours

 ConditionsComfort  
Time TempWeatherWind HumidityBarometerVisibility
8:53 AM
Jan 27
36 °FSunny.No wind85%29.94 "Hg10 mi
7:53 AM31 °FPassing clouds.No wind92%29.94 "Hg7 mi
6:53 AM32 °FOvercast.No wind96%29.91 "Hg10 mi
5:53 AM30 °FPassing clouds.No wind96%29.91 "Hg7 mi
4:53 AM28 °FPassing clouds.No wind100%29.92 "Hg9 mi
3:53 AM29 °FClear.No wind96%29.93 "Hg10 mi
2:53 AM32 °FClear.No wind92%29.94 "Hg10 mi
1:53 AM33 °FClear.No wind85%29.95 "Hg10 mi
12:53 AM35 °FPassing clouds.3 mph78%29.95 "Hg10 mi
11:53 PM
Jan 26
36 °FOvercast.5 mph79%29.95 "Hg10 mi
10:53 PM34 °FOvercast.6 mph82%29.95 "Hg10 mi
9:53 PM34 °FClear.5 mph79%29.96 "Hg10 mi
8:53 PM36 °FClear.5 mph75%29.95 "Hg10 mi
7:53 PM37 °FClear.6 mph73%29.94 "Hg10 mi
6:53 PM40 °FClear.16 mph65%29.93 "Hg10 mi
5:53 PM42 °FPartly sunny.15 mph68%29.89 "Hg10 mi
4:53 PM44 °FOvercast.20 mph71%29.86 "Hg10 mi
3:53 PM47 °FOvercast.14 mph64%29.85 "Hg10 mi
2:53 PM47 °FMostly cloudy.16 mph66%29.83 "Hg10 mi
1:53 PM48 °FOvercast.18 mph61%29.83 "Hg10 mi
12:53 PM48 °FOvercast.18 mph66%29.83 "Hg10 mi
11:53 AM48 °FOvercast.16 mph68%29.85 "Hg10 mi
10:53 AM47 °FMostly cloudy.15 mph74%29.86 "Hg10 mi
9:53 AM47 °FMostly cloudy.14 mph77%29.83 "Hg10 mi
Weather by CustomWeather, © 2014

See weather overviewHow to use our weather pages